sat.trackr.live / text

‹ back to catalog

STARLINK-36898

NORAD 68002 · 2026-039S

PAYLOAD ACTIVE UNKNOWN

§ Identity

Operator
Country
US
Launch date
2026-02-27
Launch site
AFETR
Launch vehicle
Mass (kg)
RCS (m²)

Purposes: comms

External: N2YO · Heavens-Above · Gunter

§ Orbital elements

Epoch: 2026-09-19T09:19:22.226016Z

Period
94.27 min
Inclination
42.9992°
Eccentricity
0.0001471
Mean motion
15.27593773 rev/d
Perigee alt
482.0 km
Apogee alt
484.0 km
Semi-major
6,861.1 km
B*
5.3054e-4
RAAN
35.3224°
Arg perigee
274.7185°
Mean anomaly
85.3499°
Rev number
3,132

§ Raw data

STARLINK-368981 68002U 26039S   26262.38845169  .00014372  00000+0  53054-3 0  99942 68002  42.9992  35.3224 0001471 274.7185  85.3499 15.27593773 31325

JSON: /api/v1/satellites/68002 · /tle

For live sub-satellite position, see the globe view (requires WebGL).

§ Visibility from observer

Set your observer location to see the next 7 days of passes ≥ 10°. The values pass through the URL so the page stays shareable.

No JS? Fill the form by hand. The geolocation button needs JavaScript.